Home   Weather   Amarillo   Past weeks

Flag for USA Past Weather in Amarillo, Texas, USA — Yesterday and Last 2 Weeks

Now
47 °F

Overcast.


Feels Like: 42 °F
Forecast: 34 / 69 °F
Wind: 10 mph from Southwest

Location: Amarillo International Airport

Current Time: Feb 26, 2017 at 10:59:28 pm

Latest Report: Feb 26, 2017 at 9:53 pm


Visibility: 10 mi

Pressure: 29.83 "Hg (26.05 "Hg at 1117m altitude)

Humidity: 37%

Dew Point: 22 °F

Location of AmarilloLocation

Past Weather in Amarillo — Graph

°F

Amarillo Temperature Yesterday

Maximum temperature yesterday: 52 °F (at 4:53 pm)
Minimum temperature yesterday: 17 °F (at 7:53 am)
Average temperature yesterday: 35 °F

High & Low Weather Summary for the Past Weeks

 TemperatureHumidityPressure
High81 °F (Feb 22, 1:53 pm)100% (Feb 14, 6:53 am)30.46 "Hg (Feb 14, 6:53 am)
Low17 °F (Feb 25, 7:53 am)7% (Feb 23, 4:53 pm)29.32 "Hg (Feb 23, 2:53 pm)
Average46 °F56%29.93 "Hg
* Reported Feb 11 9:53 pm — Feb 26 9:53 pm, Amarillo, Weather by CustomWeather, © 2017

Note: Actual official high and low records may vary slightly from our data, if they occured in-between our weather recording intervals... More about our weather records

Advertising

Amarillo Weather History for the Previous 24 Hours

Scroll right to see more
 ConditionsComfort  
Time TempWeatherWind HumidityBarometerVisibility
9:53 pm
Sun, Feb 26
47 °FOvercast.10 mph37%29.83 "Hg10 mi
8:53 pm44 °FClear.9 mph40%29.84 "Hg10 mi
7:53 pm47 °FClear.3 mph25%29.84 "Hg10 mi
6:53 pm49 °FOvercast.3 mph25%29.84 "Hg10 mi
5:53 pm54 °FPartly sunny.6 mph19%29.80 "Hg10 mi
4:53 pm59 °FPassing clouds.6 mph15%29.77 "Hg10 mi
3:53 pm58 °FPartly sunny.5 mph17%29.77 "Hg10 mi
2:53 pm58 °FSunny.8 mph16%29.78 "Hg10 mi
1:53 pm55 °FSunny.7 mph17%29.81 "Hg10 mi
12:53 pm54 °FSunny.No wind16%29.84 "Hg10 mi
11:53 am54 °FSunny.6 mph16%29.85 "Hg10 mi
10:53 am51 °FSunny.7 mph25%29.86 "Hg10 mi
9:53 am45 °FSunny.9 mph42%29.87 "Hg10 mi
8:53 am40 °FSunny.10 mph58%29.85 "Hg10 mi
7:53 am34 °FSunny.9 mph73%29.84 "Hg10 mi
6:53 am31 °FClear.5 mph76%29.81 "Hg10 mi
5:53 am33 °FClear.6 mph72%29.79 "Hg10 mi
4:53 am34 °FClear.5 mph73%29.78 "Hg10 mi
3:53 am35 °FClear.13 mph67%29.78 "Hg10 mi
2:53 am35 °FClear.13 mph64%29.80 "Hg10 mi
1:53 am34 °FClear.16 mph64%29.83 "Hg10 mi
12:53 am34 °FClear.14 mph61%29.85 "Hg10 mi
11:53 pm
Sat, Feb 25
37 °FClear.12 mph54%29.87 "Hg10 mi
10:53 pm38 °FClear.15 mph51%29.88 "Hg10 mi
Weather by CustomWeather, © 2017

See weather overviewHow to use our weather pages